Weather History for West Plains, MO

Change the Weather History Date:

Tuesday, May 22, 2012

  Actual Average Record
Temperature  
Mean Temperature 63 °F 67 °F  
Max Temperature 80 °F 78 °F 92 °F (1998)
Min Temperature 45 °F 56 °F 37 °F (1993)
Degree Days  
Heating Degree Days 2 2  
Month to date heating degree days 20 70  
Since 1 July heating degree days 3436 4332  
Cooling Degree Days 0 4  
Month to date cooling degree days 87 53  
Year to date cooling degree days 187 81  
Growing Degree Days 12 (Base 50)    
Moisture  
Dew Point 43 °F    
Average Humidity 56    
Maximum Humidity 89    
Minimum Humidity 23    
Precipitation  
Precipitation 0.00 in 0.14 in 4.12 in (1989)
Month to date precipitation 0.27 3.79  
Year to date precipitation 12.64 18.12  
Sea Level Pressure  
Sea Level Pressure 30.01 in    
Wind  
Wind Speed 2 mph (ESE)    
Max Wind Speed 13 mph    
Max Gust Speed 18 mph    
Visibility 10 miles    
Events      
T = Trace of Precipitation, MM = Missing Value Source: NWS Daily Summary

Daily Weather History Graph

Daily Weather History Graph

Search for Another Location

Airport:

Trip Planner

Search our weather history database for the weather conditions in past years. The results will help you decide how hot, cold, wet, or windy it might be!

Date:

Astronomy

May. 22, 2012 Rise Set
Actual Time 5:54 AM CDT 8:14 PM CDT
Civil Twilight 5:24 AM CDT 8:44 PM CDT
Nautical Twilight 4:48 AM CDT 9:20 PM CDT
Astronomical Twilight 4:08 AM CDT 10:00 PM CDT
Moon 7:05 AM CDT (5/22) 9:52 PM CDT (5/22)
Length of Visible Light 15h 19m
Length of Day
14h 20m
Waxing Crescent, 3% of the Moon is Illuminated
May 22
Waxing Crescent
May 28
First Quarter
Jun 4
Full
Jun 11
Last Quarter
Jun 19
New

Hourly Weather History & Observations

Time (CDT) Temp. Dew Point Humidity Pressure Visibility Wind Dir Wind Speed Gust Speed Precip Events Conditions
12:53 AM 52.0 °F 42.1 °F 69% 30.09 in 10.0 mi Calm Calm - N/A   Clear
1:53 AM 52.0 °F 41.0 °F 66% 30.08 in 10.0 mi NNW 3.5 mph - N/A   Clear
2:53 AM 51.1 °F 41.0 °F 68% 30.08 in 10.0 mi Calm Calm - N/A   Clear
3:53 AM 48.9 °F 41.0 °F 74% 30.08 in 10.0 mi Calm Calm - N/A   Clear
4:53 AM 45.0 °F 41.0 °F 86% 30.09 in 10.0 mi Calm Calm - N/A   Clear
5:53 AM 46.9 °F 41.0 °F 80% 30.09 in 10.0 mi Calm Calm - N/A   Clear
6:53 AM 50.0 °F 43.0 °F 77% 30.09 in 10.0 mi Calm Calm - N/A   Clear
7:53 AM 60.1 °F 46.9 °F 62% 30.09 in 10.0 mi Calm Calm - N/A   Clear
8:53 AM 64.0 °F 48.0 °F 56% 30.09 in 10.0 mi Calm Calm - N/A   Clear
9:53 AM 66.0 °F 46.0 °F 48% 30.08 in 10.0 mi South 3.5 mph - N/A   Clear
10:53 AM 70.0 °F 41.0 °F 35% 30.07 in 10.0 mi East 10.4 mph 18.4 mph N/A   Clear
11:53 AM 71.1 °F 44.1 °F 38% 30.05 in 10.0 mi Calm Calm - N/A   Clear
12:53 PM 73.9 °F 41.0 °F 30% 30.04 in 10.0 mi East 6.9 mph - N/A   Clear
1:53 PM 73.9 °F 39.9 °F 29% 30.01 in 10.0 mi Variable 3.5 mph - N/A   Clear
2:53 PM 75.9 °F 39.0 °F 26% 29.99 in 10.0 mi East 3.5 mph - N/A   Clear
3:53 PM 78.1 °F 37.9 °F 24% 29.96 in 10.0 mi North 3.5 mph - N/A   Clear
4:53 PM 79.0 °F 39.0 °F 24% 29.94 in 10.0 mi Variable 3.5 mph - N/A   Clear
5:53 PM 78.1 °F 39.0 °F 25% 29.92 in 10.0 mi Calm Calm - N/A   Clear
6:53 PM 75.9 °F 43.0 °F 31% 29.91 in 10.0 mi West 4.6 mph - N/A   Clear
7:53 PM 71.1 °F 48.0 °F 44% 29.90 in 10.0 mi Calm Calm - N/A   Clear
8:53 PM 66.9 °F 46.9 °F 49% 29.90 in 10.0 mi Calm Calm - N/A   Clear
9:53 PM 63.0 °F 46.9 °F 56% 29.90 in 10.0 mi Calm Calm - N/A   Clear
10:53 PM 63.0 °F 46.9 °F 56% 29.90 in 10.0 mi SSE 4.6 mph - N/A   Clear
11:53 PM 60.1 °F 46.9 °F 62% 29.91 in 10.0 mi SSE 3.5 mph - N/A   Clear